Location: Holbach
(51.5399°N, 10.6036°E)
Time: 10:14:45
(UTC+00:00)

Cosmos 1092 Rocket - Pass Details

Date: 22 June 2021
Orbit: 955 x 994 km, 82.9° (Epoch: 28 July)

Event Time Altitude Azimuth Distance (km) Brightness Sun altitude
Exits shadow 00:16:39 14° 161° (SSE) 2,405 5.6 -14.0°
Maximum altitude 00:21:44 49° 91° (E) 1,212 4.6 -13.8°
Drops below altitude 10° 00:27:38 10° 18° (NNE) 2,704 7.8 -13.5°
Sets 00:30:13 0° 14° (NNE) 3,658 9.1 -13.4°
